Location: Cudham
(51.3000°N, 0.0667°E)
Time: 20:28:58
(UTC+00:00)

USA 234 - Pass Details

Date: 19 May 2025
Orbit: 1097 x 1111 km, 123.0° (Epoch: 19 June)

Event Time Altitude Azimuth Distance (km) Brightness Sun altitude
Rises 20:48:44 0° 58° (ENE) 3,926 6.0 -7.8°
Reaches altitude 10° 20:51:18 10° 63° (ENE) 2,968 5.4 -8.0°
Maximum altitude 20:57:41 53° 139° (SE) 1,338 3.4 -8.7°
Drops below altitude 10° 21:04:04 10° 216° (SW) 2,965 5.4 -9.4°
Sets 21:06:38 0° 221° (SW) 3,922 6.1 -9.6°
